Time,TemperatureF,DewpointF,PressureIn,WindDirection,WindDirectionDegrees,WindSpeedMPH,WindSpeedGustMPH,Humidity,HourlyPrecipIn,Conditions,Clouds,dailyrainin,SoftwareType,DateUTC
2013-06-24 00:00:00,68.6,66.2,29.73,West,268,0.0,1.0,92,0.00,,,0.00,Wunderground v.1.15,2013-06-24 05:00:00,
2013-06-24 00:06:00,68.6,66.2,29.73,West,268,0.0,1.0,92,0.00,,,0.00,Wunderground v.1.15,2013-06-24 05:06:00,
2013-06-24 00:11:00,68.5,66.1,29.73,West,268,0.0,1.0,92,0.00,,,0.00,Wunderground v.1.15,2013-06-24 05:11:00,
2013-06-24 00:16:00,68.3,65.9,29.73,West,268,0.0,1.0,92,0.00,,,0.00,Wunderground v.1.15,2013-06-24 05:16:00,
2013-06-24 00:21:00,68.3,65.9,29.73,West,269,0.0,1.0,92,0.00,,,0.00,Wunderground v.1.15,2013-06-24 05:21:00,
2013-06-24 00:26:00,68.2,65.8,29.73,West,268,0.0,1.0,92,0.00,,,0.00,Wunderground v.1.15,2013-06-24 05:26:00,
2013-06-24 00:32:00,68.2,65.8,29.73,WSW,243,0.0,1.0,92,0.00,,,0.00,Wunderground v.1.15,2013-06-24 05:32:00,
2013-06-24 00:37:00,68.2,65.8,29.73,WSW,243,0.0,1.0,92,0.00,,,0.00,Wunderground v.1.15,2013-06-24 05:37:00,
2013-06-24 00:42:00,68.2,65.8,29.73,WSW,243,0.0,1.0,92,0.00,,,0.00,Wunderground v.1.15,2013-06-24 05:42:00,
2013-06-24 00:47:00,68.0,65.6,29.73,WSW,243,0.0,1.0,92,0.00,,,0.00,Wunderground v.1.15,2013-06-24 05:47:00,
2013-06-24 00:52:00,67.8,65.4,29.73,WSW,243,0.0,1.0,92,0.00,,,0.00,Wunderground v.1.15,2013-06-24 05:52:00,
2013-06-24 00:57:00,67.8,65.4,29.73,WSW,243,0.0,1.0,92,0.00,,,0.00,Wunderground v.1.15,2013-06-24 05:57:00,
2013-06-24 01:02:00,67.7,65.3,29.73,WSW,243,0.0,1.0,92,0.00,,,0.00,Wunderground v.1.15,2013-06-24 06:02:00,
2013-06-24 01:07:00,67.7,65.3,29.73,WSW,243,0.0,1.0,92,0.00,,,0.00,Wunderground v.1.15,2013-06-24 06:07:00,
2013-06-24 01:12:00,67.7,65.3,29.73,WSW,243,0.0,1.0,92,0.00,,,0.00,Wunderground v.1.15,2013-06-24 06:12:00,
2013-06-24 01:17:00,67.6,65.2,29.73,WSW,243,0.0,1.0,92,0.00,,,0.00,Wunderground v.1.15,2013-06-24 06:17:00,
2013-06-24 01:22:00,67.5,65.1,29.73,WSW,243,0.0,1.0,92,0.00,,,0.00,Wunderground v.1.15,2013-06-24 06:22:00,
2013-06-24 01:27:00,67.4,65.0,29.73,WSW,243,0.0,1.0,92,0.00,,,0.00,Wunderground v.1.15,2013-06-24 06:27:00,
2013-06-24 01:32:00,67.3,64.9,29.73,WSW,243,0.0,1.0,92,0.00,,,0.00,Wunderground v.1.15,2013-06-24 06:32:00,
2013-06-24 01:37:00,67.2,64.8,29.73,WSW,243,0.0,1.0,92,0.00,,,0.00,Wunderground v.1.15,2013-06-24 06:37:00,
2013-06-24 01:42:00,67.1,64.7,29.73,WSW,243,0.0,1.0,92,0.00,,,0.00,Wunderground v.1.15,2013-06-24 06:42:00,
2013-06-24 01:47:00,66.9,64.5,29.73,WSW,243,0.0,1.0,92,0.00,,,0.00,Wunderground v.1.15,2013-06-24 06:47:00,
2013-06-24 01:52:00,66.8,64.4,29.73,WSW,243,0.0,1.0,92,0.00,,,0.00,Wunderground v.1.15,2013-06-24 06:52:00,
2013-06-24 01:57:00,66.7,64.3,29.73,WSW,243,0.0,1.0,92,0.00,,,0.00,Wunderground v.1.15,2013-06-24 06:57:00,
2013-06-24 02:03:00,66.6,64.5,29.73,WSW,243,0.0,1.0,93,0.00,,,0.00,Wunderground v.1.15,2013-06-24 07:03:00,
2013-06-24 02:08:00,66.6,64.2,29.73,WSW,243,0.0,1.0,92,0.00,,,0.00,Wunderground v.1.15,2013-06-24 07:08:00,
2013-06-24 02:15:00,66.5,64.1,29.73,WSW,243,0.0,1.0,92,0.00,,,0.00,Wunderground v.1.15,2013-06-24 07:15:00,
2013-06-24 02:20:00,66.6,64.2,29.73,WSW,243,0.0,1.0,92,0.00,,,0.00,Wunderground v.1.15,2013-06-24 07:20:00,
2013-06-24 02:25:00,66.6,64.2,29.73,WSW,243,0.0,1.0,92,0.00,,,0.00,Wunderground v.1.15,2013-06-24 07:25:00,
2013-06-24 02:31:00,66.5,64.1,29.73,WSW,243,0.0,1.0,92,0.00,,,0.00,Wunderground v.1.15,2013-06-24 07:31:00,
2013-06-24 02:36:00,66.3,64.2,29.73,WSW,243,0.0,1.0,93,0.00,,,0.00,Wunderground v.1.15,2013-06-24 07:36:00,
2013-06-24 02:41:00,66.2,63.8,29.73,WSW,243,0.0,1.0,92,0.00,,,0.00,Wunderground v.1.15,2013-06-24 07:41:00,
2013-06-24 02:46:00,66.2,63.8,29.73,WSW,243,0.0,1.0,92,0.00,,,0.00,Wunderground v.1.15,2013-06-24 07:46:00,
2013-06-24 02:52:00,66.1,63.7,29.73,WSW,243,0.0,1.0,92,0.00,,,0.00,Wunderground v.1.15,2013-06-24 07:52:00,
2013-06-24 02:58:00,66.1,63.7,29.73,WSW,243,0.0,1.0,92,0.00,,,0.00,Wunderground v.1.15,2013-06-24 07:58:00,
2013-06-24 03:03:00,66.1,63.7,29.73,WSW,243,0.0,1.0,92,0.00,,,0.00,Wunderground v.1.15,2013-06-24 08:03:00,
2013-06-24 03:08:00,66.1,63.7,29.73,WSW,243,0.0,1.0,92,0.00,,,0.00,Wunderground v.1.15,2013-06-24 08:08:00,
2013-06-24 03:13:00,66.2,63.8,29.73,WSW,243,0.0,1.0,92,0.00,,,0.00,Wunderground v.1.15,2013-06-24 08:13:00,
2013-06-24 03:19:00,66.3,63.9,29.73,WSW,243,0.0,1.0,92,0.00,,,0.00,Wunderground v.1.15,2013-06-24 08:19:00,
2013-06-24 03:24:00,66.3,63.9,29.73,WSW,243,0.0,1.0,92,0.00,,,0.00,Wunderground v.1.15,2013-06-24 08:24:00,
2013-06-24 03:29:00,66.1,63.7,29.73,WSW,243,0.0,1.0,92,0.00,,,0.00,Wunderground v.1.15,2013-06-24 08:29:00,
2013-06-24 03:34:00,65.9,63.5,29.72,WSW,243,0.0,1.0,92,0.00,,,0.00,Wunderground v.1.15,2013-06-24 08:34:00,
2013-06-24 03:39:00,65.8,63.4,29.72,WSW,243,0.0,1.0,92,0.00,,,0.00,Wunderground v.1.15,2013-06-24 08:39:00,
2013-06-24 03:44:00,65.6,63.2,29.72,WSW,243,0.0,1.0,92,0.00,,,0.00,Wunderground v.1.15,2013-06-24 08:44:00,
2013-06-24 03:50:00,65.5,63.1,29.72,WSW,243,0.0,1.0,92,0.00,,,0.00,Wunderground v.1.15,2013-06-24 08:50:00,
2013-06-24 03:55:00,65.5,63.1,29.72,WSW,243,0.0,1.0,92,0.00,,,0.00,Wunderground v.1.15,2013-06-24 08:55:00,
2013-06-24 04:00:00,65.6,63.2,29.72,WSW,243,0.0,1.0,92,0.00,,,0.00,Wunderground v.1.15,2013-06-24 09:00:00,
2013-06-24 04:06:00,65.7,63.3,29.72,WSW,243,0.0,1.0,92,0.00,,,0.00,Wunderground v.1.15,2013-06-24 09:06:00,
2013-06-24 04:12:00,65.4,63.0,29.72,WSW,243,0.0,1.0,92,0.00,,,0.00,Wunderground v.1.15,2013-06-24 09:12:00,
2013-06-24 04:17:00,65.4,63.0,29.72,WSW,243,0.0,1.0,92,0.00,,,0.00,Wunderground v.1.15,2013-06-24 09:17:00,
2013-06-24 04:23:00,65.3,62.9,29.72,WSW,243,0.0,1.0,92,0.00,,,0.00,Wunderground v.1.15,2013-06-24 09:23:00,
2013-06-24 04:28:00,65.1,63.0,29.72,WSW,243,0.0,1.0,93,0.00,,,0.00,Wunderground v.1.15,2013-06-24 09:28:00,
2013-06-24 04:33:00,64.8,62.7,29.71,WSW,243,0.0,1.0,93,0.00,,,0.00,Wunderground v.1.15,2013-06-24 09:33:00,
2013-06-24 04:39:00,64.8,62.4,29.71,WSW,243,0.0,1.0,92,0.00,,,0.00,Wunderground v.1.15,2013-06-24 09:39:00,
2013-06-24 04:44:00,64.7,62.3,29.71,WSW,243,0.0,1.0,92,0.00,,,0.00,Wunderground v.1.15,2013-06-24 09:44:00,
2013-06-24 04:50:00,64.6,62.2,29.72,WSW,243,0.0,1.0,92,0.00,,,0.00,Wunderground v.1.15,2013-06-24 09:50:00,
2013-06-24 04:55:00,64.9,62.5,29.72,WSW,243,0.0,1.0,92,0.00,,,0.00,Wunderground v.1.15,2013-06-24 09:55:00,
2013-06-24 05:00:00,64.9,62.5,29.72,WSW,243,0.0,1.0,92,0.00,,,0.00,Wunderground v.1.15,2013-06-24 10:00:00,
2013-06-24 05:05:00,64.7,62.6,29.73,WSW,243,0.0,1.0,93,0.00,,,0.00,Wunderground v.1.15,2013-06-24 10:05:00,
2013-06-24 05:10:00,64.6,62.2,29.73,WSW,243,0.0,1.0,92,0.00,,,0.00,Wunderground v.1.15,2013-06-24 10:10:00,
2013-06-24 05:15:00,64.9,62.5,29.73,WSW,243,0.0,1.0,92,0.00,,,0.00,Wunderground v.1.15,2013-06-24 10:15:00,
2013-06-24 05:20:00,64.9,62.5,29.73,WSW,243,0.0,1.0,92,0.00,,,0.00,Wunderground v.1.15,2013-06-24 10:20:00,
2013-06-24 05:25:00,64.7,62.3,29.73,WSW,243,0.0,1.0,92,0.00,,,0.00,Wunderground v.1.15,2013-06-24 10:25:00,
2013-06-24 05:30:00,64.6,62.2,29.73,WSW,243,0.0,1.0,92,0.00,,,0.00,Wunderground v.1.15,2013-06-24 10:30:00,
2013-06-24 05:36:00,64.6,62.2,29.73,WSW,243,0.0,1.0,92,0.00,,,0.00,Wunderground v.1.15,2013-06-24 10:36:00,
2013-06-24 05:41:00,64.9,62.5,29.73,WSW,243,0.0,1.0,92,0.00,,,0.00,Wunderground v.1.15,2013-06-24 10:41:00,
2013-06-24 05:46:00,64.8,62.4,29.73,WSW,243,0.0,1.0,92,0.00,,,0.00,Wunderground v.1.15,2013-06-24 10:46:00,
2013-06-24 05:51:00,64.6,62.5,29.73,WSW,243,0.0,1.0,93,0.00,,,0.00,Wunderground v.1.15,2013-06-24 10:51:00,
2013-06-24 05:57:00,64.4,62.0,29.73,WSW,243,0.0,1.0,92,0.00,,,0.00,Wunderground v.1.15,2013-06-24 10:57:00,
2013-06-24 06:02:00,64.3,61.9,29.73,WSW,243,0.0,1.0,92,0.00,,,0.00,Wunderground v.1.15,2013-06-24 11:02:00,
2013-06-24 06:07:00,64.5,62.1,29.73,WSW,243,0.0,1.0,92,0.00,,,0.00,Wunderground v.1.15,2013-06-24 11:07:00,
2013-06-24 06:12:00,64.5,62.1,29.73,WSW,243,0.0,1.0,92,0.00,,,0.00,Wunderground v.1.15,2013-06-24 11:12:00,
2013-06-24 06:17:00,64.7,62.3,29.74,WSW,243,0.0,1.0,92,0.00,,,0.00,Wunderground v.1.15,2013-06-24 11:17:00,
2013-06-24 06:22:00,65.0,62.3,29.74,WSW,243,0.0,1.0,91,0.00,,,0.00,Wunderground v.1.15,2013-06-24 11:22:00,
2013-06-24 06:28:00,65.1,62.7,29.74,WSW,243,0.0,1.0,92,0.00,,,0.00,Wunderground v.1.15,2013-06-24 11:28:00,
2013-06-24 06:33:00,65.2,62.8,29.74,WSW,243,0.0,1.0,92,0.00,,,0.00,Wunderground v.1.15,2013-06-24 11:33:00,
2013-06-24 06:39:00,65.1,62.7,29.74,WSW,243,0.0,1.0,92,0.00,,,0.00,Wunderground v.1.15,2013-06-24 11:39:00,
2013-06-24 06:44:00,65.1,62.7,29.74,WSW,243,0.0,1.0,92,0.00,,,0.00,Wunderground v.1.15,2013-06-24 11:44:00,
2013-06-24 06:49:00,65.4,63.0,29.75,WSW,243,0.0,1.0,92,0.00,,,0.00,Wunderground v.1.15,2013-06-24 11:49:00,
2013-06-24 06:54:00,65.7,63.0,29.75,WSW,243,0.0,1.0,91,0.00,,,0.00,Wunderground v.1.15,2013-06-24 11:54:00,
2013-06-24 06:59:00,65.9,63.2,29.75,WSW,243,0.0,1.0,91,0.00,,,0.00,Wunderground v.1.15,2013-06-24 11:59:00,
2013-06-24 07:04:00,66.1,63.4,29.75,WSW,243,0.0,1.0,91,0.00,,,0.00,Wunderground v.1.15,2013-06-24 12:04:00,
2013-06-24 07:09:00,66.3,63.6,29.75,WSW,243,0.0,1.0,91,0.00,,,0.00,Wunderground v.1.15,2013-06-24 12:09:00,
2013-06-24 07:14:00,66.5,63.8,29.74,WSW,243,0.0,1.0,91,0.00,,,0.00,Wunderground v.1.15,2013-06-24 12:14:00,
2013-06-24 07:20:00,66.7,64.0,29.75,WSW,243,0.0,1.0,91,0.00,,,0.00,Wunderground v.1.15,2013-06-24 12:20:00,
2013-06-24 07:25:00,66.9,64.2,29.74,WSW,243,0.0,1.0,91,0.00,,,0.00,Wunderground v.1.15,2013-06-24 12:25:00,
2013-06-24 07:31:00,67.2,64.5,29.74,WSW,243,0.0,1.0,91,0.00,,,0.00,Wunderground v.1.15,2013-06-24 12:31:00,
2013-06-24 07:36:00,67.4,64.7,29.73,WSW,243,0.0,1.0,91,0.00,,,0.00,Wunderground v.1.15,2013-06-24 12:36:00,
2013-06-24 07:41:00,67.7,65.0,29.73,WSW,243,0.0,1.0,91,0.00,,,0.00,Wunderground v.1.15,2013-06-24 12:41:00,
2013-06-24 07:46:00,67.9,65.2,29.73,WSW,243,0.0,1.0,91,0.00,,,0.00,Wunderground v.1.15,2013-06-24 12:46:00,
2013-06-24 07:51:00,68.0,65.3,29.73,WSW,243,0.0,1.0,91,0.00,,,0.00,Wunderground v.1.15,2013-06-24 12:51:00,
2013-06-24 07:57:00,68.3,65.6,29.72,WSW,243,0.0,1.0,91,0.00,,,0.00,Wunderground v.1.15,2013-06-24 12:57:00,
2013-06-24 08:02:00,68.4,65.7,29.71,WSW,255,0.0,1.0,91,0.00,,,0.00,Wunderground v.1.15,2013-06-24 13:02:00,
2013-06-24 08:07:00,68.6,66.2,29.71,North,360,0.0,2.0,92,0.00,,,0.00,Wunderground v.1.15,2013-06-24 13:07:00,
2013-06-24 08:12:00,69.1,66.4,29.71,North,357,0.0,1.0,91,0.00,,,0.00,Wunderground v.1.15,2013-06-24 13:12:00,
2013-06-24 08:18:00,69.4,67.0,29.71,North,353,0.0,1.0,92,0.00,,,0.00,Wunderground v.1.15,2013-06-24 13:18:00,
2013-06-24 08:23:00,69.7,67.3,29.71,NNW,340,0.0,1.0,92,0.00,,,0.00,Wunderground v.1.15,2013-06-24 13:23:00,
2013-06-24 08:28:00,69.9,67.8,29.71,NNW,337,0.0,1.0,93,0.00,,,0.00,Wunderground v.1.15,2013-06-24 13:28:00,
2013-06-24 08:33:00,70.6,68.5,29.71,NE,37,0.0,1.0,93,0.00,,,0.00,Wunderground v.1.15,2013-06-24 13:33:00,
2013-06-24 08:39:00,71.0,68.6,29.71,NE,52,0.0,1.0,92,0.00,,,0.00,Wunderground v.1.15,2013-06-24 13:39:00,
2013-06-24 08:45:00,71.6,68.8,29.72,NNW,336,1.0,1.0,91,0.00,,,0.00,Wunderground v.1.15,2013-06-24 13:45:00,
2013-06-24 08:50:00,72.2,69.4,29.72,ENE,68,0.0,1.0,91,0.00,,,0.00,Wunderground v.1.15,2013-06-24 13:50:00,
2013-06-24 08:55:00,72.4,69.3,29.72,WNW,292,0.0,1.0,90,0.00,,,0.00,Wunderground v.1.15,2013-06-24 13:55:00,
2013-06-24 09:00:00,72.9,69.5,29.72,NW,304,0.0,1.0,89,0.00,,,0.00,Wunderground v.1.15,2013-06-24 14:00:00,
2013-06-24 09:05:00,73.3,69.9,29.72,NW,309,0.0,1.0,89,0.00,,,0.00,Wunderground v.1.15,2013-06-24 14:05:00,
2013-06-24 09:10:00,73.8,69.7,29.73,NW,309,0.0,1.0,87,0.00,,,0.00,Wunderground v.1.15,2013-06-24 14:10:00,
2013-06-24 09:16:00,74.6,70.5,29.73,NW,307,0.0,1.0,87,0.00,,,0.00,Wunderground v.1.15,2013-06-24 14:16:00,
2013-06-24 09:22:00,75.0,70.2,29.74,NNW,345,0.0,1.0,85,0.00,,,0.00,Wunderground v.1.15,2013-06-24 14:22:00,
2013-06-24 09:27:00,75.5,70.7,29.73,NNW,333,0.0,1.0,85,0.00,,,0.00,Wunderground v.1.15,2013-06-24 14:27:00,
2013-06-24 09:32:00,75.9,71.1,29.73,WNW,288,0.0,1.0,85,0.00,,,0.00,Wunderground v.1.15,2013-06-24 14:32:00,
2013-06-24 09:37:00,76.5,71.3,29.73,WNW,290,0.0,1.0,84,0.00,,,0.00,Wunderground v.1.15,2013-06-24 14:37:00,
2013-06-24 09:42:00,76.9,71.3,29.74,NW,314,0.0,1.0,83,0.00,,,0.00,Wunderground v.1.15,2013-06-24 14:42:00,
2013-06-24 09:47:00,77.3,71.7,29.74,ENE,77,0.0,1.0,83,0.00,,,0.00,Wunderground v.1.15,2013-06-24 14:47:00,
2013-06-24 09:52:00,77.7,72.5,29.74,ENE,73,0.0,1.0,84,0.00,,,0.00,Wunderground v.1.15,2013-06-24 14:52:00,
2013-06-24 09:58:00,77.9,71.2,29.73,NNE,13,1.0,3.0,80,0.00,,,0.00,Wunderground v.1.15,2013-06-24 14:58:00,
2013-06-24 10:03:00,77.9,71.2,29.73,NNE,14,2.0,2.0,80,0.00,,,0.00,Wunderground v.1.15,2013-06-24 15:03:00,
2013-06-24 10:08:00,78.2,71.2,29.73,NNW,340,2.0,2.0,79,0.00,,,0.00,Wunderground v.1.15,2013-06-24 15:08:00,
2013-06-24 10:14:00,78.2,71.5,29.73,NNW,335,1.0,1.0,80,0.00,,,0.00,Wunderground v.1.15,2013-06-24 15:14:00,
2013-06-24 10:19:00,78.4,71.0,29.73,North,360,1.0,2.0,78,0.00,,,0.00,Wunderground v.1.15,2013-06-24 15:19:00,
2013-06-24 10:24:00,78.5,71.8,29.73,NW,307,0.0,1.0,80,0.00,,,0.00,Wunderground v.1.15,2013-06-24 15:24:00,
2013-06-24 10:29:00,78.3,70.9,29.73,North,349,1.0,2.0,78,0.00,,,0.00,Wunderground v.1.15,2013-06-24 15:29:00,
2013-06-24 10:34:00,78.1,71.1,29.72,NE,47,1.0,3.0,79,0.00,,,0.00,Wunderground v.1.15,2013-06-24 15:34:00,
2013-06-24 10:39:00,78.1,71.1,29.72,North,360,1.0,3.0,79,0.00,,,0.00,Wunderground v.1.15,2013-06-24 15:39:00,
2013-06-24 10:45:00,78.5,72.2,29.72,North,353,0.0,2.0,81,0.00,,,0.00,Wunderground v.1.15,2013-06-24 15:45:00,
2013-06-24 10:50:00,78.7,72.0,29.73,NNE,26,1.0,1.0,80,0.00,,,0.00,Wunderground v.1.15,2013-06-24 15:50:00,
2013-06-24 10:55:00,79.0,72.3,29.73,WNW,301,1.0,2.0,80,0.00,,,0.00,Wunderground v.1.15,2013-06-24 15:55:00,
2013-06-24 11:00:00,79.0,71.9,29.72,NNW,328,1.0,1.0,79,0.00,,,0.00,Wunderground v.1.15,2013-06-24 16:00:00,
2013-06-24 11:06:00,79.3,71.8,29.72,NNW,340,1.0,1.0,78,0.00,,,0.00,Wunderground v.1.15,2013-06-24 16:06:00,
2013-06-24 11:11:00,79.3,71.5,29.71,North,6,1.0,3.0,77,0.00,,,0.00,Wunderground v.1.15,2013-06-24 16:11:00,
2013-06-24 11:16:00,79.4,71.6,29.71,NNW,333,2.0,3.0,77,0.00,,,0.00,Wunderground v.1.15,2013-06-24 16:16:00,
2013-06-24 11:21:00,79.8,71.6,29.71,NW,313,2.0,3.0,76,0.00,,,0.00,Wunderground v.1.15,2013-06-24 16:21:00,
2013-06-24 11:26:00,80.1,72.2,29.71,NNW,338,2.0,3.0,77,0.00,,,0.00,Wunderground v.1.15,2013-06-24 16:26:00,
2013-06-24 11:31:00,80.3,72.8,29.71,SW,214,1.0,1.0,78,0.00,,,0.00,Wunderground v.1.15,2013-06-24 16:31:00,
2013-06-24 11:36:00,80.5,72.6,29.71,NNW,347,1.0,1.0,77,0.00,,,0.00,Wunderground v.1.15,2013-06-24 16:36:00,
2013-06-24 11:41:00,80.8,72.1,29.71,NW,308,1.0,1.0,75,0.00,,,0.00,Wunderground v.1.15,2013-06-24 16:41:00,
2013-06-24 11:47:00,81.2,72.9,29.72,South,186,1.0,1.0,76,0.00,,,0.00,Wunderground v.1.15,2013-06-24 16:47:00,
2013-06-24 11:52:00,81.3,72.2,29.71,NNW,342,1.0,3.0,74,0.00,,,0.00,Wunderground v.1.15,2013-06-24 16:52:00,
2013-06-24 11:57:00,81.2,73.3,29.71,NW,315,1.0,3.0,77,0.00,,,0.00,Wunderground v.1.15,2013-06-24 16:57:00,
2013-06-24 12:03:00,81.5,73.6,29.71,WNW,288,1.0,1.0,77,0.00,,,0.00,Wunderground v.1.15,2013-06-24 17:03:00,
2013-06-24 12:09:00,81.4,71.9,29.71,WNW,282,1.0,2.0,73,0.00,,,0.00,Wunderground v.1.15,2013-06-24 17:09:00,
2013-06-24 12:15:00,81.1,72.4,29.70,NW,311,1.0,2.0,75,0.00,,,0.00,Wunderground v.1.15,2013-06-24 17:15:00,
2013-06-24 12:20:00,80.9,72.2,29.70,North,349,0.0,1.0,75,0.00,,,0.00,Wunderground v.1.15,2013-06-24 17:20:00,
2013-06-24 12:25:00,80.5,72.6,29.70,NW,313,1.0,1.0,77,0.00,,,0.00,Wunderground v.1.15,2013-06-24 17:25:00,
2013-06-24 12:30:00,80.0,72.5,29.70,WNW,293,1.0,2.0,78,0.00,,,0.00,Wunderground v.1.15,2013-06-24 17:30:00,
2013-06-24 12:35:00,79.9,72.0,29.70,WSW,256,1.0,2.0,77,0.00,,,0.00,Wunderground v.1.15,2013-06-24 17:35:00,
2013-06-24 12:41:00,79.8,72.7,29.70,West,275,0.0,1.0,79,0.00,,,0.00,Wunderground v.1.15,2013-06-24 17:41:00,
2013-06-24 12:46:00,79.6,72.5,29.70,NW,315,0.0,1.0,79,0.00,,,0.00,Wunderground v.1.15,2013-06-24 17:46:00,
2013-06-24 12:51:00,79.3,72.2,29.69,NW,318,0.0,1.0,79,0.00,,,0.00,Wunderground v.1.15,2013-06-24 17:51:00,
2013-06-24 12:56:00,79.1,72.4,29.70,North,353,0.0,2.0,80,0.00,,,0.00,Wunderground v.1.15,2013-06-24 17:56:00,
2013-06-24 13:01:00,78.8,72.1,29.70,NNW,347,1.0,1.0,80,0.00,,,0.00,Wunderground v.1.15,2013-06-24 18:01:00,
2013-06-24 13:07:00,78.4,72.1,29.70,NW,318,1.0,3.0,81,0.00,,,0.00,Wunderground v.1.15,2013-06-24 18:07:00,
2013-06-24 13:12:00,78.0,72.4,29.70,East,101,1.0,2.0,83,0.00,,,0.00,Wunderground v.1.15,2013-06-24 18:12:00,
2013-06-24 13:17:00,77.4,72.2,29.70,West,281,1.0,3.0,84,0.00,,,0.00,Wunderground v.1.15,2013-06-24 18:17:00,
2013-06-24 13:23:00,76.4,71.2,29.70,North,1,2.0,7.0,84,0.00,,,0.00,Wunderground v.1.15,2013-06-24 18:23:00,
2013-06-24 13:28:00,75.8,71.3,29.70,NW,307,2.0,7.0,86,0.00,,,0.00,Wunderground v.1.15,2013-06-24 18:28:00,
2013-06-24 13:33:00,75.5,71.4,29.70,NNW,333,1.0,2.0,87,0.00,,,0.00,Wunderground v.1.15,2013-06-24 18:33:00,
2013-06-24 13:39:00,75.3,71.5,29.70,SW,234,1.0,2.0,88,0.00,,,0.00,Wunderground v.1.15,2013-06-24 18:39:00,
2013-06-24 13:44:00,75.2,71.4,29.70,North,358,0.0,2.0,88,0.00,,,0.00,Wunderground v.1.15,2013-06-24 18:44:00,
2013-06-24 13:50:00,74.9,71.4,29.70,NNW,342,1.0,1.0,89,0.00,,,0.00,Wunderground v.1.15,2013-06-24 18:50:00,
2013-06-24 13:55:00,74.5,71.0,29.70,NNE,20,1.0,2.0,89,0.00,,,0.00,Wunderground v.1.15,2013-06-24 18:55:00,
2013-06-24 14:00:00,74.2,71.1,29.69,North,5,0.0,1.0,90,0.00,,,0.01,Wunderground v.1.15,2013-06-24 19:00:00,
2013-06-24 14:05:00,74.0,71.2,29.68,NNW,347,1.0,2.0,91,0.00,,,0.01,Wunderground v.1.15,2013-06-24 19:05:00,
2013-06-24 14:11:00,73.6,70.8,29.67,NNW,347,1.0,1.0,91,0.00,,,0.01,Wunderground v.1.15,2013-06-24 19:11:00,
2013-06-24 14:16:00,73.5,71.0,29.68,WNW,287,1.0,2.0,92,0.00,,,0.01,Wunderground v.1.15,2013-06-24 19:16:00,
2013-06-24 14:21:00,73.5,71.0,29.68,WNW,292,0.0,1.0,92,0.00,,,0.01,Wunderground v.1.15,2013-06-24 19:21:00,
2013-06-24 14:26:00,73.6,71.1,29.67,WNW,283,0.0,1.0,92,0.00,,,0.01,Wunderground v.1.15,2013-06-24 19:26:00,
2013-06-24 14:31:00,73.8,71.3,29.66,West,277,0.0,1.0,92,0.00,,,0.01,Wunderground v.1.15,2013-06-24 19:31:00,
2013-06-24 14:36:00,73.9,71.4,29.66,ESE,110,0.0,1.0,92,0.00,,,0.01,Wunderground v.1.15,2013-06-24 19:36:00,
2013-06-24 14:41:00,73.7,71.2,29.65,SE,131,1.0,1.0,92,0.00,,,0.01,Wunderground v.1.15,2013-06-24 19:41:00,
2013-06-24 14:47:00,73.9,71.4,29.65,ESE,107,0.0,1.0,92,0.00,,,0.01,Wunderground v.1.15,2013-06-24 19:47:00,
2013-06-24 14:53:00,74.0,71.5,29.64,SE,141,0.0,1.0,92,0.00,,,0.01,Wunderground v.1.15,2013-06-24 19:53:00,
2013-06-24 14:58:00,74.4,71.9,29.63,NW,305,0.0,1.0,92,0.00,,,0.01,Wunderground v.1.15,2013-06-24 19:58:00,
2013-06-24 15:03:00,74.7,71.9,29.63,West,274,1.0,1.0,91,0.00,,,0.01,Wunderground v.1.15,2013-06-24 20:03:00,
2013-06-24 15:09:00,75.1,72.3,29.64,WSW,249,1.0,2.0,91,0.00,,,0.01,Wunderground v.1.15,2013-06-24 20:09:00,
2013-06-24 15:14:00,75.4,72.3,29.64,NW,308,1.0,1.0,90,0.00,,,0.01,Wunderground v.1.15,2013-06-24 20:14:00,
2013-06-24 15:20:00,75.2,71.4,29.65,NW,308,2.0,2.0,88,0.00,,,0.01,Wunderground v.1.15,2013-06-24 20:20:00,
2013-06-24 15:25:00,74.9,70.8,29.65,North,358,2.0,3.0,87,0.00,,,0.01,Wunderground v.1.15,2013-06-24 20:25:00,
2013-06-24 15:30:00,74.6,70.1,29.65,NW,307,2.0,2.0,86,0.00,,,0.01,Wunderground v.1.15,2013-06-24 20:30:00,
2013-06-24 15:36:00,74.2,69.4,29.66,NNW,328,1.0,2.0,85,0.00,,,0.01,Wunderground v.1.15,2013-06-24 20:36:00,
2013-06-24 15:41:00,73.9,69.8,29.66,West,269,1.0,1.0,87,0.00,,,0.01,Wunderground v.1.15,2013-06-24 20:41:00,
2013-06-24 15:46:00,73.7,69.9,29.66,West,269,1.0,1.0,88,0.00,,,0.01,Wunderground v.1.15,2013-06-24 20:46:00,
2013-06-24 15:51:00,73.7,69.9,29.66,SW,231,1.0,2.0,88,0.00,,,0.01,Wunderground v.1.15,2013-06-24 20:51:00,
2013-06-24 15:56:00,73.6,69.8,29.66,SW,221,1.0,2.0,88,0.00,,,0.01,Wunderground v.1.15,2013-06-24 20:56:00,
2013-06-24 16:01:00,73.6,69.8,29.66,NW,305,1.0,2.0,88,0.00,,,0.01,Wunderground v.1.15,2013-06-24 21:01:00,
2013-06-24 16:06:00,73.6,69.8,29.66,West,260,0.0,2.0,88,0.00,,,0.01,Wunderground v.1.15,2013-06-24 21:06:00,
2013-06-24 16:11:00,73.6,69.8,29.66,West,260,0.0,1.0,88,0.00,,,0.01,Wunderground v.1.15,2013-06-24 21:11:00,
2013-06-24 16:17:00,73.5,69.7,29.66,WNW,284,0.0,1.0,88,0.00,,,0.01,Wunderground v.1.15,2013-06-24 21:17:00,
2013-06-24 16:22:00,73.5,69.7,29.66,WNW,284,0.0,1.0,88,0.00,,,0.01,Wunderground v.1.15,2013-06-24 21:22:00,
2013-06-24 16:28:00,73.3,69.2,29.66,WNW,288,0.0,1.0,87,0.00,,,0.01,Wunderground v.1.15,2013-06-24 21:28:00,
2013-06-24 16:34:00,73.1,69.0,29.66,WSW,255,1.0,2.0,87,0.00,,,0.01,Wunderground v.1.15,2013-06-24 21:34:00,
2013-06-24 16:39:00,72.9,68.5,29.65,WSW,256,0.0,2.0,86,0.00,,,0.01,Wunderground v.1.15,2013-06-24 21:39:00,
2013-06-24 16:44:00,72.7,68.3,29.65,WSW,255,0.0,1.0,86,0.00,,,0.01,Wunderground v.1.15,2013-06-24 21:44:00,
2013-06-24 16:49:00,72.7,68.3,29.65,WSW,255,0.0,1.0,86,0.00,,,0.01,Wunderground v.1.15,2013-06-24 21:49:00,
2013-06-24 16:54:00,72.8,69.0,29.66,WSW,256,0.0,1.0,88,0.00,,,0.01,Wunderground v.1.15,2013-06-24 21:54:00,
2013-06-24 17:00:00,72.8,69.0,29.66,WSW,256,0.0,1.0,88,0.00,,,0.01,Wunderground v.1.15,2013-06-24 22:00:00,
2013-06-24 17:06:00,72.7,68.3,29.67,WSW,256,0.0,1.0,86,0.00,,,0.01,Wunderground v.1.15,2013-06-24 22:06:00,
2013-06-24 17:11:00,72.9,68.8,29.66,WSW,255,0.0,1.0,87,0.00,,,0.01,Wunderground v.1.15,2013-06-24 22:11:00,
2013-06-24 17:16:00,73.0,68.9,29.66,WSW,256,0.0,1.0,87,0.00,,,0.01,Wunderground v.1.15,2013-06-24 22:16:00,
2013-06-24 17:21:00,72.8,68.4,29.66,NNE,30,0.0,1.0,86,0.00,,,0.01,Wunderground v.1.15,2013-06-24 22:21:00,
2013-06-24 17:27:00,72.9,68.5,29.66,NNE,30,0.0,1.0,86,0.00,,,0.01,Wunderground v.1.15,2013-06-24 22:27:00,
2013-06-24 17:32:00,73.2,68.4,29.66,NNE,30,0.0,1.0,85,0.00,,,0.01,Wunderground v.1.15,2013-06-24 22:32:00,
2013-06-24 17:37:00,73.5,68.4,29.67,West,261,0.0,1.0,84,0.00,,,0.01,Wunderground v.1.15,2013-06-24 22:37:00,
2013-06-24 17:44:00,73.8,68.7,29.66,West,262,0.0,1.0,84,0.00,,,0.01,Wunderground v.1.15,2013-06-24 22:44:00,
2013-06-24 17:49:00,73.9,68.8,29.66,West,262,0.0,1.0,84,0.00,,,0.01,Wunderground v.1.15,2013-06-24 22:49:00,
2013-06-24 17:55:00,73.7,68.9,29.67,West,262,0.0,1.0,85,0.00,,,0.01,Wunderground v.1.15,2013-06-24 22:55:00,
2013-06-24 18:00:00,73.5,69.1,29.66,West,262,0.0,1.0,86,0.00,,,0.01,Wunderground v.1.15,2013-06-24 23:00:00,
2013-06-24 18:05:00,73.4,69.3,29.67,West,262,0.0,1.0,87,0.00,,,0.01,Wunderground v.1.15,2013-06-24 23:05:00,
2013-06-24 18:11:00,73.5,69.4,29.67,West,262,0.0,1.0,87,0.00,,,0.01,Wunderground v.1.15,2013-06-24 23:11:00,
2013-06-24 18:16:00,73.9,69.8,29.67,West,262,0.0,1.0,87,0.00,,,0.01,Wunderground v.1.15,2013-06-24 23:16:00,
2013-06-24 18:21:00,74.1,70.0,29.67,West,263,0.0,1.0,87,0.00,,,0.01,Wunderground v.1.15,2013-06-24 23:21:00,
2013-06-24 18:26:00,74.4,69.6,29.67,West,262,0.0,1.0,85,0.00,,,0.01,Wunderground v.1.15,2013-06-24 23:26:00,
2013-06-24 18:31:00,74.5,69.7,29.67,West,278,0.0,1.0,85,0.00,,,0.01,Wunderground v.1.15,2013-06-24 23:31:00,
2013-06-24 18:36:00,74.6,69.8,29.67,West,278,0.0,1.0,85,0.00,,,0.01,Wunderground v.1.15,2013-06-24 23:36:00,
2013-06-24 18:41:00,74.5,69.3,29.67,West,280,0.0,1.0,84,0.00,,,0.01,Wunderground v.1.15,2013-06-24 23:41:00,
2013-06-24 18:46:00,74.3,69.5,29.67,West,280,0.0,1.0,85,0.00,,,0.01,Wunderground v.1.15,2013-06-24 23:46:00,
2013-06-24 18:52:00,74.0,68.5,29.67,West,281,0.0,1.0,83,0.00,,,0.01,Wunderground v.1.15,2013-06-24 23:52:00,
2013-06-24 18:58:00,73.8,68.3,29.67,West,281,0.0,1.0,83,0.00,,,0.01,Wunderground v.1.15,2013-06-24 23:58:00,
2013-06-24 19:04:00,73.6,68.5,29.67,West,281,0.0,1.0,84,0.00,,,0.01,Wunderground v.1.15,2013-06-25 00:04:00,
2013-06-24 19:09:00,73.6,68.8,29.67,West,281,0.0,1.0,85,0.00,,,0.01,Wunderground v.1.15,2013-06-25 00:09:00,
2013-06-24 19:14:00,73.4,68.3,29.66,West,281,0.0,1.0,84,0.00,,,0.01,Wunderground v.1.15,2013-06-25 00:14:00,
2013-06-24 19:19:00,73.5,69.1,29.66,West,281,0.0,1.0,86,0.00,,,0.01,Wunderground v.1.15,2013-06-25 00:19:00,
2013-06-24 19:24:00,73.3,68.5,29.66,West,281,0.0,1.0,85,0.00,,,0.01,Wunderground v.1.15,2013-06-25 00:24:00,
2013-06-24 19:29:00,73.1,68.7,29.65,West,281,0.0,1.0,86,0.00,,,0.01,Wunderground v.1.15,2013-06-25 00:29:00,
2013-06-24 19:35:00,72.9,68.5,29.65,WNW,283,0.0,1.0,86,0.00,,,0.01,Wunderground v.1.15,2013-06-25 00:35:00,
2013-06-24 19:40:00,72.9,68.8,29.65,WNW,283,0.0,1.0,87,0.00,,,0.01,Wunderground v.1.15,2013-06-25 00:40:00,
2013-06-24 19:45:00,72.8,68.4,29.65,WNW,283,0.0,1.0,86,0.00,,,0.01,Wunderground v.1.15,2013-06-25 00:45:00,
2013-06-24 19:50:00,72.7,68.3,29.65,WNW,283,0.0,1.0,86,0.00,,,0.01,Wunderground v.1.15,2013-06-25 00:50:00,
2013-06-24 19:55:00,72.7,68.6,29.65,WNW,282,0.0,1.0,87,0.00,,,0.01,Wunderground v.1.15,2013-06-25 00:55:00,
2013-06-24 20:00:00,72.6,68.5,29.65,WNW,284,0.0,1.0,87,0.00,,,0.01,Wunderground v.1.15,2013-06-25 01:00:00,
2013-06-24 20:06:00,72.3,68.2,29.65,WNW,284,0.0,1.0,87,0.00,,,0.01,Wunderground v.1.15,2013-06-25 01:06:00,
2013-06-24 20:11:00,72.1,68.0,29.65,WNW,284,0.0,1.0,87,0.00,,,0.01,Wunderground v.1.15,2013-06-25 01:11:00,
2013-06-24 20:17:00,72.0,67.9,29.65,WNW,284,0.0,1.0,87,0.00,,,0.01,Wunderground v.1.15,2013-06-25 01:17:00,
2013-06-24 20:22:00,71.8,68.1,29.66,WNW,284,0.0,1.0,88,0.00,,,0.01,Wunderground v.1.15,2013-06-25 01:22:00,
2013-06-24 20:27:00,71.6,67.9,29.66,WNW,285,0.0,1.0,88,0.00,,,0.01,Wunderground v.1.15,2013-06-25 01:27:00,
2013-06-24 20:33:00,71.4,68.0,29.65,WNW,284,0.0,1.0,89,0.00,,,0.01,Wunderground v.1.15,2013-06-25 01:33:00,
2013-06-24 20:40:00,71.2,67.8,29.65,WNW,285,0.0,1.0,89,0.00,,,0.01,Wunderground v.1.15,2013-06-25 01:40:00,
2013-06-24 20:45:00,71.0,67.6,29.65,WNW,284,0.0,1.0,89,0.00,,,0.01,Wunderground v.1.15,2013-06-25 01:45:00,
2013-06-24 20:50:00,70.8,67.7,29.65,WNW,284,0.0,1.0,90,0.00,,,0.01,Wunderground v.1.15,2013-06-25 01:50:00,
2013-06-24 20:55:00,70.6,67.5,29.65,WNW,284,0.0,1.0,90,0.00,,,0.01,Wunderground v.1.15,2013-06-25 01:55:00,
2013-06-24 21:00:00,70.4,67.3,29.65,East,79,0.0,1.0,90,0.00,,,0.01,Wunderground v.1.15,2013-06-25 02:00:00,
2013-06-24 21:06:00,70.1,67.0,29.64,NE,42,0.0,1.0,90,0.00,,,0.01,Wunderground v.1.15,2013-06-25 02:06:00,
2013-06-24 21:11:00,70.1,67.0,29.64,NE,43,0.0,1.0,90,0.00,,,0.01,Wunderground v.1.15,2013-06-25 02:11:00,
2013-06-24 21:16:00,70.0,66.9,29.64,NE,42,0.0,1.0,90,0.00,,,0.01,Wunderground v.1.15,2013-06-25 02:16:00,
2013-06-24 21:21:00,70.0,66.9,29.64,NE,43,0.0,1.0,90,0.00,,,0.01,Wunderground v.1.15,2013-06-25 02:21:00,
2013-06-24 21:26:00,69.9,66.8,29.64,NE,43,0.0,1.0,90,0.00,,,0.01,Wunderground v.1.15,2013-06-25 02:26:00,
2013-06-24 21:31:00,69.9,66.8,29.64,NE,43,0.0,1.0,90,0.00,,,0.01,Wunderground v.1.15,2013-06-25 02:31:00,
2013-06-24 21:37:00,69.6,66.5,29.64,NE,43,0.0,1.0,90,0.00,,,0.01,Wunderground v.1.15,2013-06-25 02:37:00,
2013-06-24 21:42:00,69.4,66.3,29.64,NE,42,0.0,1.0,90,0.00,,,0.01,Wunderground v.1.15,2013-06-25 02:42:00,
2013-06-24 21:48:00,69.2,66.5,29.64,NE,46,0.0,1.0,91,0.00,,,0.01,Wunderground v.1.15,2013-06-25 02:48:00,
2013-06-24 21:54:00,69.0,66.3,29.64,NE,45,0.0,1.0,91,0.00,,,0.01,Wunderground v.1.15,2013-06-25 02:54:00,
2013-06-24 21:59:00,69.0,65.9,29.65,NE,46,0.0,1.0,90,0.00,,,0.01,Wunderground v.1.15,2013-06-25 02:59:00,
2013-06-24 22:04:00,69.0,66.3,29.66,NE,45,0.0,1.0,91,0.00,,,0.01,Wunderground v.1.15,2013-06-25 03:04:00,
2013-06-24 22:09:00,68.8,65.7,29.65,NE,36,0.0,1.0,90,0.00,,,0.01,Wunderground v.1.15,2013-06-25 03:09:00,
2013-06-24 22:14:00,68.6,65.9,29.66,NE,35,0.0,1.0,91,0.00,,,0.01,Wunderground v.1.15,2013-06-25 03:14:00,
2013-06-24 22:19:00,68.5,65.8,29.66,NE,35,0.0,1.0,91,0.00,,,0.01,Wunderground v.1.15,2013-06-25 03:19:00,
2013-06-24 22:26:00,68.3,65.6,29.66,NE,35,0.0,1.0,91,0.00,,,0.01,Wunderground v.1.15,2013-06-25 03:26:00,
2013-06-24 22:32:00,68.1,65.4,29.67,NE,36,0.0,1.0,91,0.00,,,0.01,Wunderground v.1.15,2013-06-25 03:32:00,
2013-06-24 22:37:00,67.9,65.5,29.67,NE,36,0.0,1.0,92,0.00,,,0.01,Wunderground v.1.15,2013-06-25 03:37:00,
2013-06-24 22:45:00,67.7,65.3,29.67,NE,39,0.0,1.0,92,0.00,,,0.01,Wunderground v.1.15,2013-06-25 03:45:00,
2013-06-24 22:51:00,67.5,65.1,29.67,NE,40,0.0,1.0,92,0.00,,,0.01,Wunderground v.1.15,2013-06-25 03:51:00,
2013-06-24 22:56:00,67.4,65.0,29.67,NE,39,0.0,1.0,92,0.00,,,0.01,Wunderground v.1.15,2013-06-25 03:56:00,
2013-06-24 23:02:00,67.2,64.8,29.68,ENE,77,0.0,1.0,92,0.00,,,0.01,Wunderground v.1.15,2013-06-25 04:02:00,
2013-06-24 23:03:00,67.2,64.8,29.68,ENE,77,0.0,1.0,92,0.00,,,0.01,Wunderground v.1.15,2013-06-25 04:03:00,
2013-06-24 23:05:00,67.2,64.8,29.67,ENE,77,0.0,1.0,92,0.00,,,0.01,Wunderground v.1.15,2013-06-25 04:05:00,
2013-06-24 23:08:00,67.2,64.8,29.67,ENE,70,0.0,1.0,92,0.00,,,0.01,Wunderground v.1.15,2013-06-25 04:08:00,
2013-06-24 23:13:00,67.3,64.9,29.67,NE,41,0.0,1.0,92,0.00,,,0.01,Wunderground v.1.15,2013-06-25 04:13:00,
2013-06-24 23:18:00,67.3,64.9,29.67,NE,39,0.0,1.0,92,0.00,,,0.01,Wunderground v.1.15,2013-06-25 04:18:00,
2013-06-24 23:24:00,67.4,65.0,29.67,NE,39,0.0,1.0,92,0.00,,,0.01,Wunderground v.1.15,2013-06-25 04:24:00,
2013-06-24 23:29:00,67.5,65.1,29.67,NE,39,0.0,1.0,92,0.00,,,0.01,Wunderground v.1.15,2013-06-25 04:29:00,
2013-06-24 23:34:00,67.4,65.0,29.67,NE,38,0.0,1.0,92,0.00,,,0.01,Wunderground v.1.15,2013-06-25 04:34:00,
2013-06-24 23:39:00,67.4,65.0,29.67,NE,37,0.0,1.0,92,0.00,,,0.01,Wunderground v.1.15,2013-06-25 04:39:00,
2013-06-24 23:44:00,67.4,65.0,29.67,NE,37,0.0,1.0,92,0.00,,,0.01,Wunderground v.1.15,2013-06-25 04:44:00,
2013-06-24 23:49:00,67.3,64.9,29.67,NE,37,0.0,1.0,92,0.00,,,0.01,Wunderground v.1.15,2013-06-25 04:49:00,
2013-06-24 23:54:00,67.3,64.9,29.67,NE,37,0.0,1.0,92,0.00,,,0.01,Wunderground v.1.15,2013-06-25 04:54:00,
2013-06-24 23:59:00,67.3,64.9,29.66,NNE,23,0.0,1.0,92,0.00,,,0.01,Wunderground v.1.15,2013-06-25 04:59:00,